| time (UTC) | temp F | wind direction | speed MPH | gust MPH | rain 1hr in | rain 24hr in | rain mn in | humidity % | barometer mb |
| 20260504171211 | 58 | 181 | 4.0 | 7.0 | 0.01 | 0.10 | 0.10 | 87 | 11.4 |
| 20260504171209 | 58 | 178 | 5.0 | 7.0 | 0.01 | 0.11 | 0.11 | 89 | 1011.6 |
| 20260504170211 | 58 | 173 | 5.0 | 8.0 | 0.01 | 0.10 | 0.10 | 88 | 11.4 |
| 20260504160212 | 60 | 183 | 6.0 | 7.0 | 0.02 | 0.10 | 0.10 | 92 | 1012.1 |
| 20260504151004 | 60 | 185 | 0.0 | 7.0 | 0.08 | 0.08 | 0.08 | 90 | 1012.3 |
| 20260504150903 | 60 | 189 | 6.0 | 9.0 | 0.08 | 0.08 | 0.08 | 90 | 1012.3 |
| 20260504150602 | 60 | 189 | 8.0 | 9.0 | 0.08 | 0.08 | 0.08 | 90 | 1012.3 |
| 20260504150403 | 60 | 181 | 6.0 | 9.0 | 0.08 | 0.08 | 0.08 | 90 | 1012.3 |
| 20260504150202 | 60 | 193 | 5.0 | 6.0 | 0.08 | 0.08 | 0.08 | 89 | 1012.3 |
| 20260504141216 | 63 | 279 | 1.0 | 3.0 | 0.00 | 0.00 | 0.00 | 81 | 1012.3 |
| 20260504141210 | 63 | 279 | 1.0 | 2.0 | 0.00 | 0.00 | 0.00 | 81 | 1012.3 |
| 20260504141203 | 63 | 279 | 2.0 | 2.0 | 0.00 | 0.00 | 0.00 | 81 | 1012.3 |
| 20260504141004 | 63 | 279 | 1.0 | 2.0 | 0.00 | 0.00 | 0.00 | 80 | 1012.3 |
| 20260504140802 | 63 | 279 | 0.0 | 3.0 | 0.00 | 0.00 | 0.00 | 80 | 1012.2 |
| 20260504140504 | 63 | 281 | 2.0 | 3.0 | 0.00 | 0.00 | 0.00 | 79 | 1012.2 |
| 20260504140403 | 63 | 281 | 2.0 | 3.0 | 0.00 | 0.00 | 0.00 | 80 | 1012.2 |
| 20260504140213 | 63 | 281 | 3.0 | 4.0 | 0.00 | 0.00 | 0.00 | 80 | 1012.2 |
| 20260504140210 | 63 | 284 | 1.0 | 2.0 | 0.00 | 0.00 | 0.00 | 79 | 1012.2 |
| 20260504140202 | 63 | 284 | 0.0 | 4.0 | 0.00 | 0.00 | 0.00 | 79 | 1012.2 |
| 20260504130803 | 63 | 326 | 3.0 | 5.0 | 0.00 | 0.00 | 0.00 | 79 | 1012.2 |
| 20260504130604 | 63 | 313 | 3.0 | 4.0 | 0.00 | 0.00 | 0.00 | 79 | 1012.2 |
| 20260504130403 | 63 | 315 | 2.0 | 4.0 | 0.00 | 0.00 | 0.00 | 78 | 1012.2 |
| 20260504130302 | 63 | 309 | 2.0 | 3.0 | 0.00 | 0.00 | 0.00 | 79 | 1012.2 |
| 20260504130213 | 63 | 308 | 2.0 | 4.0 | 0.00 | 0.00 | 0.00 | 79 | 1012.2 |
| 20260504130210 | 63 | 308 | 2.0 | 4.0 | 0.00 | 0.00 | 0.00 | 75 | 12.0 |
| 20260504120212 | 63 | 317 | 4.0 | 7.0 | 0.00 | 0.00 | 0.00 | 77 | 1012.3 |
| 20260504120210 | 63 | 313 | 3.0 | 8.0 | 0.00 | 0.00 | 0.00 | 77 | 1012.4 |
| 20260504110703 | 63 | 323 | 2.0 | 5.0 | 0.00 | 0.00 | 0.00 | 78 | 1012.5 |
| 20260504110504 | 63 | 327 | 4.0 | 5.0 | 0.00 | 0.00 | 0.00 | 78 | 1012.6 |
| 20260504110302 | 63 | 290 | 4.0 | 5.0 | 0.00 | 0.00 | 0.00 | 78 | 1012.6 |
| 20260504110210 | 63 | 290 | 3.0 | 5.0 | 0.00 | 0.00 | 0.00 | 75 | 12.3 |
| 20260504110103 | 63 | 321 | 1.0 | 5.0 | 0.00 | 0.00 | 0.00 | 79 | 1012.6 |
| 20260504100503 | 64 | 309 | 3.0 | 8.0 | 0.00 | 0.00 | 0.00 | 77 | 1012.5 |
| 20260504100403 | 64 | 323 | 3.0 | 8.0 | 0.00 | 0.00 | 0.00 | 76 | 1012.6 |
| 20260504100210 | 64 | 275 | 5.0 | 8.0 | 0.00 | 0.00 | 0.00 | 76 | 1012.6 |
| 20260504100202 | 64 | 275 | 5.0 | 8.0 | 0.00 | 0.00 | 0.00 | 76 | 1012.6 |
| 20260504100103 | 64 | 260 | 3.0 | 7.0 | 0.00 | 0.00 | 0.00 | 76 | 1012.6 |
| 20260504081903 | 63 | 281 | 3.0 | 4.0 | 0.00 | 0.00 | 0.00 | 77 | 1012.4 |
| 20260504081703 | 62 | 275 | 3.0 | 6.0 | 0.00 | 0.00 | 0.00 | 77 | 1012.4 |
| 20260504081603 | 62 | 215 | 3.0 | 6.0 | 0.00 | 0.00 | 0.00 | 78 | 1012.3 |
| 20260504081504 | 62 | 286 | 4.0 | 6.0 | 0.00 | 0.00 | 0.00 | 78 | 1012.3 |
| 20260504081403 | 62 | 278 | 4.0 | 6.0 | 0.00 | 0.00 | 0.00 | 78 | 1012.4 |
| 20260504081302 | 62 | 286 | 3.0 | 6.0 | 0.00 | 0.00 | 0.00 | 78 | 1012.3 |
| 20260504081211 | 62 | 220 | 2.0 | 5.0 | 0.00 | 0.00 | 0.00 | 77 | 1012.3 |
| 20260504081209 | 62 | 286 | 4.0 | 6.0 | 0.00 | 0.00 | 0.00 | 78 | 1012.3 |
| 20260504081203 | 62 | 220 | 2.0 | 4.0 | 0.00 | 0.00 | 0.00 | 77 | 1012.4 |
| 20260504081103 | 62 | 220 | 3.0 | 4.0 | 0.00 | 0.00 | 0.00 | 78 | 1012.3 |
| 20260504081004 | 63 | 220 | 1.0 | 7.0 | 0.00 | 0.00 | 0.00 | 78 | 1012.4 |
| 20260504080902 | 63 | 220 | 3.0 | 7.0 | 0.00 | 0.00 | 0.00 | 78 | 1012.4 |
| 20260504080803 | 63 | 219 | 4.0 | 7.0 | 0.00 | 0.00 | 0.00 | 79 | 1012.4 |
| 20260504080603 | 63 | 304 | 4.0 | 7.0 | 0.00 | 0.00 | 0.00 | 80 | 1012.4 |
| 20260504080402 | 62 | 210 | 4.0 | 6.0 | 0.00 | 0.00 | 0.00 | 77 | 1012.4 |
| 20260504080303 | 63 | 209 | 5.0 | 6.0 | 0.00 | 0.00 | 0.00 | 78 | 1012.4 |
| 20260504080211 | 63 | 217 | 4.0 | 6.0 | 0.00 | 0.00 | 0.00 | 80 | 1012.4 |
| 20260504080209 | 63 | 209 | 4.0 | 6.0 | 0.00 | 0.00 | 0.00 | 78 | 1012.4 |
| 20260504070402 | 60 | 211 | 3.0 | 4.0 | 0.00 | 0.00 | 0.00 | 82 | 1012.2 |
| 20260504070211 | 59 | 211 | 3.0 | 4.0 | 0.00 | 0.00 | 0.00 | 82 | 1012.3 |
| 20260504070209 | 59 | 211 | 3.0 | 4.0 | 0.00 | 0.00 | 0.00 | 82 | 1012.3 |
| 20260504070204 | 59 | 211 | 3.0 | 4.0 | 0.00 | 0.00 | 0.00 | 82 | 1012.3 |
| 20260504060211 | 54 | 173 | 1.0 | 2.0 | 0.00 | 0.00 | 0.00 | 91 | 1012.1 |
| 20260504060209 | 54 | 173 | 1.0 | 1.0 | 0.00 | 0.00 | 0.00 | 91 | 1012.1 |
| 20260504050603 | 53 | 175 | 0.0 | 1.0 | 0.00 | 0.00 | 0.00 | 91 | 1011.6 |
| 20260504050505 | 53 | 175 | 0.0 | 1.0 | 0.00 | 0.00 | 0.00 | 91 | 1011.6 |
| 20260504050211 | 53 | 175 | 0.0 | 1.0 | 0.00 | 0.00 | 0.00 | 91 | 1011.6 |
| 20260504050203 | 53 | 175 | 0.0 | 1.0 | 0.00 | 0.00 | 0.00 | 91 | 1011.5 |
| 20260504050004 | 53 | 175 | 0.0 | 1.0 | 0.00 | 0.00 | 0.00 | 91 | 1011.6 |
| 20260504045903 | 53 | 175 | 0.0 | 1.0 | 0.00 | 0.00 | 0.00 | 91 | 1011.5 |
| 20260504045803 | 53 | 175 | 0.0 | 1.0 | 0.00 | 0.00 | 0.00 | 91 | 1011.5 |
| 20260504045703 | 53 | 175 | 0.0 | 1.0 | 0.00 | 0.00 | 0.00 | 91 | 1011.5 |
| 20260504045603 | 52 | 175 | 0.0 | 1.0 | 0.00 | 0.00 | 0.00 | 91 | 1011.5 |
| 20260504045504 | 52 | 175 | 1.0 | 1.0 | 0.00 | 0.00 | 0.00 | 91 | 1011.5 |
| 20260504045403 | 52 | 175 | 0.0 | 1.0 | 0.00 | 0.00 | 0.00 | 91 | 1011.4 |
| 20260504045304 | 52 | 176 | 0.0 | 1.0 | 0.00 | 0.00 | 0.00 | 91 | 1011.4 |
| 20260504045211 | 52 | 176 | 0.0 | 1.0 | 0.00 | 0.00 | 0.00 | 91 | 1011.4 |
| 20260504045203 | 52 | 176 | 0.0 | 1.0 | 0.00 | 0.00 | 0.00 | 91 | 1011.5 |
| 20260504045004 | 52 | 176 | 0.0 | 0.0 | 0.00 | 0.00 | 0.00 | 91 | 1011.5 |
| 20260504044903 | 52 | 176 | 0.0 | 1.0 | 0.00 | 0.00 | 0.00 | 91 | 1011.4 |
| 20260504044802 | 52 | 176 | 0.0 | 1.0 | 0.00 | 0.00 | 0.00 | 91 | 1011.4 |
| 20260504044603 | 52 | 176 | 0.0 | 1.0 | 0.00 | 0.00 | 0.00 | 91 | 1011.4 |
| 20260504044303 | 52 | 176 | 0.0 | 1.0 | 0.00 | 0.00 | 0.00 | 91 | 1011.4 |
| 20260504044211 | 52 | 176 | 0.0 | 1.0 | 0.00 | 0.00 | 0.00 | 91 | 1011.4 |
| 20260504044202 | 52 | 176 | 0.0 | 1.0 | 0.00 | 0.00 | 0.00 | 91 | 1011.4 |
| 20260504044103 | 52 | 176 | 0.0 | 1.0 | 0.00 | 0.00 | 0.00 | 91 | 1011.4 |
| 20260504043803 | 52 | 176 | 0.0 | 0.0 | 0.00 | 0.00 | 0.00 | 91 | 1011.4 |
| 20260504043402 | 52 | 176 | 0.0 | 0.0 | 0.00 | 0.00 | 0.00 | 91 | 1011.4 |
| 20260504043103 | 52 | 176 | 0.0 | 1.0 | 0.00 | 0.00 | 0.00 | 91 | 1011.4 |
| 20260504043004 | 52 | 176 | 0.0 | 1.0 | 0.00 | 0.00 | 0.00 | 91 | 1011.3 |
| 20260504042802 | 52 | 176 | 0.0 | 1.0 | 0.00 | 0.00 | 0.00 | 91 | 1011.3 |
| 20260504042603 | 52 | 176 | 0.0 | 1.0 | 0.00 | 0.00 | 0.00 | 91 | 1011.3 |
| 20260504042505 | 52 | 176 | 1.0 | 1.0 | 0.00 | 0.00 | 0.00 | 91 | 1011.3 |
| 20260504042304 | 52 | 176 | 0.0 | 1.0 | 0.00 | 0.00 | 0.00 | 91 | 1011.3 |
| 20260504042211 | 52 | 176 | 0.0 | 1.0 | 0.00 | 0.00 | 0.00 | 91 | 1011.3 |
| 20260504042202 | 52 | 176 | 0.0 | 0.0 | 0.00 | 0.00 | 0.00 | 91 | 1011.3 |
| 20260504041904 | 52 | 176 | 0.0 | 1.0 | 0.00 | 0.00 | 0.00 | 91 | 1011.3 |
| 20260504041703 | 52 | 176 | 0.0 | 1.0 | 0.00 | 0.00 | 0.00 | 92 | 1011.4 |
| 20260504041403 | 52 | 176 | 0.0 | 1.0 | 0.00 | 0.00 | 0.00 | 92 | 1011.3 |
| 20260504041302 | 52 | 176 | 1.0 | 2.0 | 0.00 | 0.00 | 0.00 | 92 | 1011.3 |
| 20260504041211 | 52 | 176 | 0.0 | 2.0 | 0.00 | 0.00 | 0.00 | 92 | 1011.3 |
| 20260504041103 | 52 | 176 | 0.0 | 2.0 | 0.00 | 0.00 | 0.00 | 92 | 1011.3 |
| 20260504040902 | 52 | 176 | 1.0 | 2.0 | 0.00 | 0.00 | 0.00 | 92 | 1011.4 |
| 20260504040703 | 52 | 176 | 0.0 | 1.0 | 0.00 | 0.00 | 0.00 | 92 | 1011.4 |
| 20260504040403 | 51 | 176 | 0.0 | 1.0 | 0.00 | 0.00 | 0.00 | 92 | 1011.4 |
| 20260504040302 | 51 | 176 | 0.0 | 1.0 | 0.00 | 0.00 | 0.00 | 92 | 1011.5 |
| 20260504040211 | 51 | 176 | 0.0 | 1.0 | 0.00 | 0.00 | 0.00 | 92 | 1011.5 |
| 20260504035602 | 51 | 176 | 0.0 | 1.0 | 0.00 | 0.00 | 0.00 | 92 | 1011.4 |
| 20260504035506 | 51 | 176 | 0.0 | 1.0 | 0.00 | 0.00 | 0.00 | 92 | 1011.5 |
| 20260504035304 | 51 | 176 | 1.0 | 1.0 | 0.00 | 0.00 | 0.00 | 92 | 1011.4 |
| 20260504035211 | 51 | 176 | 1.0 | 1.0 | 0.00 | 0.00 | 0.00 | 92 | 1011.4 |
| 20260504035003 | 51 | 176 | 0.0 | 1.0 | 0.00 | 0.00 | 0.00 | 92 | 1011.4 |
| 20260504034903 | 51 | 176 | 0.0 | 1.0 | 0.00 | 0.00 | 0.00 | 92 | 1011.5 |
| 20260504034702 | 51 | 177 | 0.0 | 2.0 | 0.00 | 0.00 | 0.00 | 92 | 1011.5 |
| 20260504034504 | 51 | 177 | 1.0 | 2.0 | 0.00 | 0.00 | 0.00 | 91 | 1011.5 |
| 20260504034403 | 51 | 177 | 0.0 | 2.0 | 0.00 | 0.00 | 0.00 | 91 | 1011.5 |
| 20260504034210 | 51 | 177 | 0.0 | 2.0 | 0.00 | 0.00 | 0.00 | 89 | 11.2 |
| 20260504034202 | 51 | 177 | 1.0 | 2.0 | 0.00 | 0.00 | 0.00 | 91 | 1011.5 |
| 20260504034103 | 51 | 179 | 1.0 | 2.0 | 0.00 | 0.00 | 0.00 | 91 | 1011.5 |
| 20260504034004 | 51 | 178 | 0.0 | 2.0 | 0.00 | 0.00 | 0.00 | 91 | 1011.5 |
| 20260504033211 | 51 | 192 | 0.0 | 1.0 | 0.00 | 0.00 | 0.00 | 91 | 1011.4 |
| 20260504033203 | 51 | 192 | 0.0 | 1.0 | 0.00 | 0.00 | 0.00 | 91 | 1011.4 |
| 20260504033003 | 51 | 192 | 1.0 | 1.0 | 0.00 | 0.00 | 0.00 | 91 | 1011.4 |
| 20260504032903 | 51 | 192 | 0.0 | 1.0 | 0.00 | 0.00 | 0.00 | 91 | 1011.4 |
| 20260504032802 | 51 | 192 | 0.0 | 2.0 | 0.00 | 0.00 | 0.00 | 91 | 1011.4 |
| 20260504032703 | 51 | 192 | 1.0 | 2.0 | 0.00 | 0.00 | 0.00 | 92 | 1011.4 |
| 20260504032602 | 51 | 192 | 0.0 | 2.0 | 0.00 | 0.00 | 0.00 | 92 | 1011.3 |
| 20260504032402 | 51 | 192 | 1.0 | 2.0 | 0.00 | 0.00 | 0.00 | 91 | 1011.3 |
| 20260504032304 | 51 | 195 | 1.0 | 2.0 | 0.00 | 0.00 | 0.00 | 91 | 1011.3 |
| 20260504032202 | 51 | 196 | 0.0 | 2.0 | 0.00 | 0.00 | 0.00 | 90 | 1011.3 |
| 20260504032103 | 51 | 196 | 1.0 | 2.0 | 0.00 | 0.00 | 0.00 | 90 | 1011.3 |
| 20260504031803 | 51 | 202 | 1.0 | 2.0 | 0.00 | 0.00 | 0.00 | 90 | 1011.2 |
| 20260504031702 | 51 | 204 | 2.0 | 2.0 | 0.00 | 0.00 | 0.00 | 90 | 1011.2 |
| 20260504031402 | 52 | 204 | 1.0 | 2.0 | 0.00 | 0.00 | 0.00 | 90 | 1011.2 |
| 20260504031303 | 52 | 204 | 0.0 | 1.0 | 0.00 | 0.00 | 0.00 | 91 | 1011.2 |
| 20260504031212 | 52 | 204 | 1.0 | 1.0 | 0.00 | 0.00 | 0.00 | 91 | 1011.2 |
| 20260504031203 | 52 | 204 | 1.0 | 1.0 | 0.00 | 0.00 | 0.00 | 91 | 1011.3 |
| 20260504031004 | 52 | 204 | 0.0 | 1.0 | 0.00 | 0.00 | 0.00 | 91 | 1011.2 |
| 20260504030803 | 52 | 204 | 0.0 | 1.0 | 0.00 | 0.00 | 0.00 | 91 | 1011.3 |
| 20260504030604 | 52 | 204 | 0.0 | 1.0 | 0.00 | 0.00 | 0.00 | 91 | 1011.2 |
| 20260504030302 | 52 | 204 | 0.0 | 0.0 | 0.00 | 0.00 | 0.00 | 91 | 1011.2 |
| 20260504030211 | 52 | 204 | 0.0 | 0.0 | 0.00 | 0.00 | 0.00 | 91 | 1011.2 |
| 20260504030005 | 52 | 204 | 0.0 | 1.0 | 0.00 | 0.00 | 0.00 | 90 | 1011.3 |
| 20260504025803 | 52 | 204 | 0.0 | 1.0 | 0.00 | 0.00 | 0.00 | 90 | 1011.2 |
| 20260504025603 | 52 | 204 | 0.0 | 2.0 | 0.00 | 0.00 | 0.00 | 90 | 1011.3 |
| 20260504025304 | 52 | 204 | 1.0 | 2.0 | 0.00 | 0.00 | 0.00 | 91 | 1011.3 |
| 20260504025211 | 52 | 204 | 1.0 | 2.0 | 0.00 | 0.00 | 0.00 | 86 | 11.0 |
| 20260504025004 | 52 | 204 | 1.0 | 2.0 | 0.00 | 0.00 | 0.00 | 91 | 1011.4 |
| 20260504024703 | 52 | 204 | 0.0 | 0.0 | 0.00 | 0.00 | 0.00 | 91 | 1011.4 |
| 20260504024504 | 52 | 204 | 0.0 | 1.0 | 0.00 | 0.00 | 0.00 | 90 | 1011.4 |
| 20260504024302 | 52 | 204 | 0.0 | 2.0 | 0.00 | 0.00 | 0.00 | 90 | 1011.4 |
| 20260504024211 | 53 | 204 | 0.0 | 2.0 | 0.00 | 0.00 | 0.00 | 86 | 11.1 |
| 20260504024203 | 52 | 204 | 1.0 | 2.0 | 0.00 | 0.00 | 0.00 | 90 | 1011.3 |
| 20260504024003 | 53 | 204 | 1.0 | 2.0 | 0.00 | 0.00 | 0.00 | 90 | 1011.3 |
| 20260504023803 | 53 | 204 | 1.0 | 2.0 | 0.00 | 0.00 | 0.00 | 90 | 1011.4 |
| 20260504023505 | 53 | 204 | 0.0 | 1.0 | 0.00 | 0.00 | 0.00 | 90 | 1011.3 |
| 20260504023211 | 53 | 204 | 0.0 | 1.0 | 0.00 | 0.00 | 0.00 | 90 | 1011.4 |
| 20260504023102 | 53 | 204 | 0.0 | 1.0 | 0.00 | 0.00 | 0.00 | 90 | 1011.4 |
| 20260504023004 | 53 | 204 | 0.0 | 0.0 | 0.00 | 0.00 | 0.00 | 90 | 1011.4 |
| 20260504022703 | 53 | 204 | 0.0 | 0.0 | 0.00 | 0.00 | 0.00 | 89 | 1011.4 |
| 20260504022504 | 53 | 204 | 0.0 | 1.0 | 0.00 | 0.00 | 0.00 | 89 | 1011.4 |
| 20260504022304 | 53 | 204 | 0.0 | 1.0 | 0.00 | 0.00 | 0.00 | 89 | 1011.3 |
| 20260504022211 | 54 | 204 | 0.0 | 1.0 | 0.00 | 0.00 | 0.00 | 85 | 11.1 |
| 20260504022202 | 53 | 204 | 0.0 | 1.0 | 0.00 | 0.00 | 0.00 | 88 | 1011.3 |
| 20260504022103 | 53 | 204 | 0.0 | 2.0 | 0.00 | 0.00 | 0.00 | 89 | 1011.3 |
| 20260504022003 | 53 | 204 | 0.0 | 2.0 | 0.00 | 0.00 | 0.00 | 89 | 1011.4 |
| 20260504021803 | 53 | 204 | 1.0 | 2.0 | 0.00 | 0.00 | 0.00 | 89 | 1011.4 |
| 20260504021704 | 53 | 204 | 0.0 | 2.0 | 0.00 | 0.00 | 0.00 | 89 | 1011.4 |
| 20260504021402 | 54 | 204 | 0.0 | 0.0 | 0.00 | 0.00 | 0.00 | 88 | 1011.4 |
| 20260504021302 | 54 | 204 | 0.0 | 0.0 | 0.00 | 0.00 | 0.00 | 88 | 1011.3 |
| 20260504021203 | 54 | 204 | 0.0 | 0.0 | 0.00 | 0.00 | 0.00 | 88 | 1011.4 |
| 20260504021103 | 54 | 204 | 0.0 | 1.0 | 0.00 | 0.00 | 0.00 | 88 | 1011.4 |
| 20260504020903 | 54 | 204 | 0.0 | 1.0 | 0.00 | 0.00 | 0.00 | 87 | 1011.3 |
| 20260504020803 | 54 | 204 | 0.0 | 1.0 | 0.00 | 0.00 | 0.00 | 87 | 1011.4 |
| 20260504020603 | 54 | 204 | 0.0 | 2.0 | 0.00 | 0.00 | 0.00 | 87 | 1011.4 |
| 20260504020504 | 54 | 204 | 0.0 | 3.0 | 0.00 | 0.00 | 0.00 | 87 | 1011.4 |
| 20260504020402 | 55 | 204 | 1.0 | 3.0 | 0.00 | 0.00 | 0.00 | 87 | 1011.4 |
| 20260504020303 | 55 | 204 | 2.0 | 3.0 | 0.00 | 0.00 | 0.00 | 87 | 1011.4 |
| 20260504020212 | 55 | 204 | 2.0 | 3.0 | 0.00 | 0.00 | 0.00 | 87 | 1011.4 |
| 20260504020210 | 55 | 204 | 1.0 | 3.0 | 0.00 | 0.00 | 0.00 | 87 | 1011.4 |
| 20260504020006 | 55 | 204 | 2.0 | 2.0 | 0.00 | 0.00 | 0.00 | 88 | 1011.3 |
| 20260504015902 | 55 | 204 | 1.0 | 2.0 | 0.00 | 0.00 | 0.00 | 88 | 1011.3 |
| 20260504015802 | 54 | 204 | 1.0 | 2.0 | 0.00 | 0.00 | 0.00 | 88 | 1011.3 |
| 20260504015603 | 54 | 204 | 1.0 | 2.0 | 0.00 | 0.00 | 0.00 | 88 | 1011.4 |
| 20260504015503 | 54 | 204 | 1.0 | 3.0 | 0.00 | 0.00 | 0.00 | 88 | 1011.3 |
| 20260504015211 | 54 | 204 | 1.0 | 3.0 | 0.00 | 0.00 | 0.00 | 85 | 11.0 |
| 20260504015202 | 54 | 204 | 2.0 | 3.0 | 0.00 | 0.00 | 0.00 | 88 | 1011.3 |
| 20260504014903 | 54 | 204 | 2.0 | 3.0 | 0.00 | 0.00 | 0.00 | 88 | 1011.4 |
| 20260504014803 | 54 | 204 | 2.0 | 3.0 | 0.00 | 0.00 | 0.00 | 88 | 1011.3 |
| 20260504014703 | 54 | 204 | 2.0 | 3.0 | 0.00 | 0.00 | 0.00 | 88 | 1011.4 |
| 20260504014211 | 55 | 204 | 2.0 | 3.0 | 0.00 | 0.00 | 0.00 | 84 | 11.0 |
| 20260504014006 | 54 | 204 | 2.0 | 3.0 | 0.00 | 0.00 | 0.00 | 87 | 1011.3 |
| 20260504013802 | 55 | 204 | 2.0 | 3.0 | 0.00 | 0.00 | 0.00 | 86 | 1011.3 |
| 20260504013504 | 55 | 204 | 2.0 | 3.0 | 0.00 | 0.00 | 0.00 | 86 | 1011.4 |
| 20260504013402 | 55 | 204 | 2.0 | 3.0 | 0.00 | 0.00 | 0.00 | 85 | 1011.4 |
| 20260504013211 | 55 | 204 | 2.0 | 3.0 | 0.00 | 0.00 | 0.00 | 86 | 1011.4 |
| 20260504012902 | 55 | 204 | 2.0 | 3.0 | 0.00 | 0.00 | 0.00 | 86 | 1011.4 |
| 20260504012802 | 55 | 204 | 3.0 | 3.0 | 0.00 | 0.00 | 0.00 | 86 | 1011.4 |
| 20260504012304 | 55 | 204 | 2.0 | 3.0 | 0.00 | 0.00 | 0.00 | 86 | 1011.3 |
| 20260504012211 | 55 | 204 | 2.0 | 3.0 | 0.00 | 0.00 | 0.00 | 84 | 11.1 |
| 20260504012102 | 55 | 204 | 2.0 | 3.0 | 0.00 | 0.00 | 0.00 | 86 | 1011.4 |
| 20260504012004 | 55 | 204 | 2.0 | 3.0 | 0.00 | 0.00 | 0.00 | 86 | 1011.3 |
| 20260504011903 | 55 | 204 | 2.0 | 3.0 | 0.00 | 0.00 | 0.00 | 86 | 1011.4 |
| 20260504011802 | 55 | 204 | 3.0 | 4.0 | 0.00 | 0.00 | 0.00 | 86 | 1011.3 |
| 20260504011702 | 55 | 204 | 2.0 | 4.0 | 0.00 | 0.00 | 0.00 | 86 | 1011.3 |
| 20260504011504 | 55 | 204 | 3.0 | 4.0 | 0.00 | 0.00 | 0.00 | 86 | 1011.3 |
| 20260504011103 | 55 | 204 | 3.0 | 4.0 | 0.00 | 0.00 | 0.00 | 86 | 1011.4 |
| 20260504010904 | 55 | 204 | 2.0 | 4.0 | 0.00 | 0.00 | 0.00 | 86 | 1011.3 |
| 20260504010803 | 55 | 204 | 3.0 | 4.0 | 0.00 | 0.00 | 0.00 | 86 | 1011.3 |
| 20260504010303 | 55 | 204 | 3.0 | 4.0 | 0.00 | 0.00 | 0.00 | 86 | 1011.4 |
| 20260504010215 | 55 | 204 | 3.0 | 5.0 | 0.00 | 0.00 | 0.00 | 84 | 11.1 |
| 20260504010213 | 55 | 204 | 3.0 | 5.0 | 0.00 | 0.00 | 0.00 | 86 | 1011.3 |
| 20260504010211 | 55 | 204 | 3.0 | 4.0 | 0.00 | 0.00 | 0.00 | 86 | 1011.4 |
| 20260504010005 | 55 | 204 | 3.0 | 4.0 | 0.00 | 0.00 | 0.00 | 86 | 1011.3 |
| 20260504005802 | 56 | 204 | 3.0 | 4.0 | 0.00 | 0.00 | 0.00 | 86 | 1011.3 |
| 20260504005502 | 55 | 204 | 3.0 | 4.0 | 0.00 | 0.00 | 0.00 | 86 | 1011.3 |
| 20260504005304 | 55 | 204 | 2.0 | 4.0 | 0.00 | 0.00 | 0.00 | 86 | 1011.2 |
| 20260504005215 | 55 | 204 | 3.0 | 4.0 | 0.00 | 0.00 | 0.00 | 84 | 11.0 |
| 20260504005211 | 55 | 204 | 3.0 | 4.0 | 0.00 | 0.00 | 0.00 | 86 | 1011.2 |
| 20260504005202 | 55 | 204 | 2.0 | 3.0 | 0.00 | 0.00 | 0.00 | 87 | 1011.2 |
| 20260504005102 | 55 | 204 | 3.0 | 3.0 | 0.00 | 0.00 | 0.00 | 87 | 1011.2 |
| 20260504004602 | 55 | 204 | 2.0 | 4.0 | 0.00 | 0.00 | 0.00 | 87 | 1011.2 |
| 20260504004305 | 55 | 204 | 2.0 | 3.0 | 0.00 | 0.00 | 0.00 | 88 | 1011.2 |
| 20260504004215 | 54 | 204 | 2.0 | 3.0 | 0.00 | 0.00 | 0.00 | 85 | 11.0 |
| 20260504004213 | 55 | 204 | 2.0 | 4.0 | 0.00 | 0.00 | 0.00 | 88 | 1011.2 |
| 20260504004211 | 55 | 204 | 2.0 | 3.0 | 0.00 | 0.00 | 0.00 | 88 | 1011.2 |
| 20260504003903 | 54 | 204 | 2.0 | 3.0 | 0.00 | 0.00 | 0.00 | 88 | 1011.2 |
| 20260504003603 | 54 | 204 | 2.0 | 3.0 | 0.00 | 0.00 | 0.00 | 87 | 1011.1 |
| 20260504003504 | 55 | 204 | 2.0 | 3.0 | 0.00 | 0.00 | 0.00 | 87 | 1011.2 |
| 20260504003403 | 55 | 204 | 2.0 | 3.0 | 0.00 | 0.00 | 0.00 | 87 | 1011.1 |
| 20260504003303 | 55 | 204 | 2.0 | 3.0 | 0.00 | 0.00 | 0.00 | 86 | 1011.2 |
| 20260504003215 | 55 | 204 | 2.0 | 3.0 | 0.00 | 0.00 | 0.00 | 85 | 10.9 |
| 20260504003211 | 55 | 204 | 2.0 | 3.0 | 0.00 | 0.00 | 0.00 | 86 | 1011.2 |
| 20260504002904 | 55 | 204 | 2.0 | 3.0 | 0.00 | 0.00 | 0.00 | 87 | 1011.2 |
| 20260504002802 | 55 | 204 | 1.0 | 3.0 | 0.00 | 0.00 | 0.00 | 87 | 1011.2 |
| 20260504002603 | 55 | 204 | 2.0 | 3.0 | 0.00 | 0.00 | 0.00 | 87 | 1011.2 |
| 20260504002504 | 55 | 204 | 2.0 | 3.0 | 0.00 | 0.00 | 0.00 | 87 | 1011.3 |
| 20260504002215 | 54 | 204 | 2.0 | 3.0 | 0.00 | 0.00 | 0.00 | 85 | 11.0 |
| 20260504002209 | 55 | 204 | 2.0 | 3.0 | 0.00 | 0.00 | 0.00 | 88 | 1011.2 |
| 20260504002005 | 55 | 204 | 2.0 | 3.0 | 0.00 | 0.00 | 0.00 | 88 | 1011.3 |
| 20260504001903 | 54 | 204 | 2.0 | 2.0 | 0.00 | 0.00 | 0.00 | 88 | 1011.3 |
| 20260504001702 | 54 | 204 | 2.0 | 2.0 | 0.00 | 0.00 | 0.00 | 88 | 1011.2 |
| 20260504001215 | 55 | 204 | 1.0 | 3.0 | 0.00 | 0.00 | 0.00 | 85 | 11.0 |
| 20260504001213 | 55 | 204 | 1.0 | 3.0 | 0.00 | 0.00 | 0.00 | 87 | 1011.3 |
| 20260504001211 | 55 | 204 | 1.0 | 3.0 | 0.00 | 0.00 | 0.00 | 87 | 1011.2 |
| 20260504001202 | 55 | 204 | 2.0 | 3.0 | 0.00 | 0.00 | 0.00 | 87 | 1011.2 |
| 20260504001103 | 55 | 204 | 2.0 | 3.0 | 0.00 | 0.00 | 0.00 | 87 | 1011.3 |
| 20260504001004 | 55 | 204 | 1.0 | 3.0 | 0.00 | 0.00 | 0.00 | 87 | 1011.3 |
| 20260504000702 | 55 | 204 | 2.0 | 3.0 | 0.00 | 0.00 | 0.00 | 87 | 1011.3 |
| 20260504000603 | 55 | 204 | 2.0 | 3.0 | 0.00 | 0.00 | 0.00 | 87 | 1011.2 |
| 20260504000402 | 55 | 204 | 1.0 | 3.0 | 0.00 | 0.00 | 0.00 | 87 | 1011.3 |
| 20260504000215 | 55 | 204 | 1.0 | 3.0 | 0.00 | 0.00 | 0.00 | 86 | 11.1 |
| 20260504000212 | 55 | 204 | 1.0 | 3.0 | 0.00 | 0.00 | 0.00 | 88 | 1011.4 |
| 20260504000004 | 55 | 204 | 3.0 | 3.0 | 0.00 | 0.00 | 0.00 | 88 | 1011.4 |
| 20260503235802 | 55 | 204 | 2.0 | 3.0 | 0.00 | 0.00 | 0.00 | 88 | 1011.4 |
| 20260503235603 | 55 | 204 | 2.0 | 2.0 | 0.00 | 0.00 | 0.00 | 88 | 1011.4 |
| 20260503235503 | 55 | 204 | 2.0 | 2.0 | 0.00 | 0.00 | 0.00 | 88 | 1011.3 |
| 20260503235402 | 55 | 204 | 2.0 | 3.0 | 0.00 | 0.00 | 0.00 | 88 | 1011.3 |
| 20260503235304 | 55 | 204 | 2.0 | 3.0 | 0.00 | 0.00 | 0.00 | 87 | 1011.3 |
| 20260503235215 | 54 | 204 | 2.0 | 3.0 | 0.00 | 0.00 | 0.00 | 86 | 11.1 |
| 20260503235211 | 55 | 204 | 2.0 | 3.0 | 0.00 | 0.00 | 0.00 | 87 | 1011.3 |
| 20260503235209 | 55 | 204 | 2.0 | 2.0 | 0.00 | 0.00 | 0.00 | 87 | 1011.3 |
| 20260503235202 | 55 | 204 | 1.0 | 3.0 | 0.00 | 0.00 | 0.00 | 87 | 1011.3 |
| 20260503235103 | 55 | 204 | 2.0 | 3.0 | 0.00 | 0.00 | 0.00 | 87 | 1011.3 |
| 20260503234803 | 55 | 204 | 2.0 | 3.0 | 0.00 | 0.00 | 0.00 | 88 | 1011.3 |
| 20260503234703 | 55 | 204 | 3.0 | 3.0 | 0.00 | 0.00 | 0.00 | 88 | 1011.3 |
| 20260503234602 | 55 | 204 | 3.0 | 3.0 | 0.00 | 0.00 | 0.00 | 89 | 1011.3 |
| 20260503234503 | 55 | 204 | 2.0 | 3.0 | 0.00 | 0.00 | 0.00 | 89 | 1011.4 |
| 20260503234303 | 54 | 204 | 2.0 | 3.0 | 0.00 | 0.00 | 0.00 | 89 | 1011.4 |
| 20260503234215 | 54 | 204 | 2.0 | 3.0 | 0.00 | 0.00 | 0.00 | 86 | 11.1 |
| 20260503234211 | 54 | 204 | 2.0 | 3.0 | 0.00 | 0.00 | 0.00 | 89 | 1011.4 |
| 20260503234209 | 54 | 204 | 3.0 | 3.0 | 0.00 | 0.00 | 0.00 | 89 | 1011.4 |
| 20260503233702 | 54 | 196 | 2.0 | 3.0 | 0.00 | 0.00 | 0.00 | 89 | 1011.4 |
| 20260503233505 | 54 | 196 | 2.0 | 4.0 | 0.00 | 0.00 | 0.00 | 89 | 1011.4 |
| 20260503233303 | 54 | 196 | 3.0 | 4.0 | 0.00 | 0.00 | 0.00 | 89 | 1011.4 |
| 20260503233215 | 54 | 196 | 3.0 | 4.0 | 0.00 | 0.00 | 0.00 | 85 | 11.2 |
| 20260503233211 | 54 | 196 | 3.0 | 4.0 | 0.00 | 0.00 | 0.00 | 89 | 1011.4 |
| 20260503233209 | 54 | 196 | 3.0 | 4.0 | 0.00 | 0.00 | 0.00 | 89 | 1011.5 |
| 20260503233202 | 54 | 196 | 2.0 | 4.0 | 0.00 | 0.00 | 0.00 | 89 | 1011.5 |
| 20260503233102 | 54 | 196 | 2.0 | 4.0 | 0.00 | 0.00 | 0.00 | 89 | 1011.4 |
| 20260503232702 | 54 | 196 | 3.0 | 4.0 | 0.00 | 0.00 | 0.00 | 89 | 1011.4 |
| 20260503232602 | 54 | 196 | 2.0 | 4.0 | 0.00 | 0.00 | 0.00 | 89 | 1011.3 |
| 20260503232503 | 54 | 198 | 2.0 | 3.0 | 0.00 | 0.00 | 0.00 | 89 | 1011.3 |
| 20260503232305 | 54 | 198 | 2.0 | 4.0 | 0.00 | 0.00 | 0.00 | 88 | 1011.3 |
| 20260503232215 | 55 | 198 | 2.0 | 4.0 | 0.00 | 0.00 | 0.00 | 85 | 11.1 |
| 20260503232209 | 54 | 198 | 2.0 | 4.0 | 0.00 | 0.00 | 0.00 | 88 | 1011.3 |
| 20260503232103 | 54 | 198 | 3.0 | 4.0 | 0.00 | 0.00 | 0.00 | 88 | 1011.3 |
| 20260503232003 | 55 | 198 | 3.0 | 4.0 | 0.00 | 0.00 | 0.00 | 88 | 1011.3 |
| 20260503231902 | 55 | 198 | 2.0 | 3.0 | 0.00 | 0.00 | 0.00 | 88 | 1011.4 |
| 20260503231302 | 55 | 198 | 2.0 | 3.0 | 0.00 | 0.00 | 0.00 | 88 | 1011.3 |
| 20260503231215 | 55 | 198 | 2.0 | 3.0 | 0.00 | 0.00 | 0.00 | 85 | 11.1 |
| 20260503231210 | 55 | 198 | 2.0 | 5.0 | 0.00 | 0.00 | 0.00 | 88 | 1011.3 |
| 20260503231102 | 55 | 198 | 2.0 | 5.0 | 0.00 | 0.00 | 0.00 | 88 | 1011.3 |
| 20260503231004 | 55 | 194 | 3.0 | 5.0 | 0.00 | 0.00 | 0.00 | 88 | 1011.3 |
| 20260503230803 | 56 | 193 | 3.0 | 5.0 | 0.00 | 0.00 | 0.00 | 88 | 1011.2 |
| 20260503230702 | 56 | 192 | 2.0 | 5.0 | 0.00 | 0.00 | 0.00 | 88 | 1011.2 |
| 20260503230603 | 56 | 224 | 2.0 | 3.0 | 0.00 | 0.00 | 0.00 | 88 | 1011.2 |
| 20260503230303 | 56 | 224 | 2.0 | 3.0 | 0.00 | 0.00 | 0.00 | 89 | 1011.2 |
| 20260503230215 | 56 | 224 | 2.0 | 3.0 | 0.00 | 0.00 | 0.00 | 85 | 11.0 |
| 20260503230209 | 56 | 224 | 2.0 | 3.0 | 0.00 | 0.00 | 0.00 | 89 | 1011.2 |
| 20260503225903 | 55 | 224 | 0.0 | 1.0 | 0.00 | 0.00 | 0.00 | 89 | 1011.3 |
| 20260503225702 | 55 | 224 | 0.0 | 1.0 | 0.00 | 0.00 | 0.00 | 88 | 1011.3 |
| 20260503225603 | 55 | 224 | 0.0 | 0.0 | 0.00 | 0.00 | 0.00 | 88 | 1011.3 |
| 20260503225403 | 56 | 224 | 0.0 | 0.0 | 0.00 | 0.00 | 0.00 | 88 | 1011.3 |
| 20260503225304 | 56 | 224 | 0.0 | 1.0 | 0.00 | 0.00 | 0.00 | 88 | 1011.3 |
| 20260503225215 | 56 | 224 | 0.0 | 1.0 | 0.00 | 0.00 | 0.00 | 84 | 11.0 |
| 20260503225209 | 56 | 224 | 0.0 | 1.0 | 0.00 | 0.00 | 0.00 | 88 | 1011.3 |
| 20260503225203 | 56 | 224 | 0.0 | 2.0 | 0.00 | 0.00 | 0.00 | 88 | 1011.3 |
| 20260503224903 | 56 | 224 | 1.0 | 2.0 | 0.00 | 0.00 | 0.00 | 87 | 1011.3 |
| 20260503224702 | 56 | 224 | 1.0 | 2.0 | 0.00 | 0.00 | 0.00 | 87 | 1011.2 |
| 20260503224602 | 56 | 224 | 1.0 | 2.0 | 0.00 | 0.00 | 0.00 | 87 | 1011.3 |
| 20260503224504 | 56 | 224 | 0.0 | 2.0 | 0.00 | 0.00 | 0.00 | 87 | 1011.2 |
| 20260503224403 | 56 | 224 | 0.0 | 1.0 | 0.00 | 0.00 | 0.00 | 87 | 1011.3 |
| 20260503224215 | 57 | 224 | 0.0 | 1.0 | 0.00 | 0.00 | 0.00 | 83 | 11.0 |
| 20260503224209 | 56 | 224 | 0.0 | 1.0 | 0.00 | 0.00 | 0.00 | 87 | 1011.2 |
| 20260503224203 | 56 | 224 | 0.0 | 1.0 | 0.00 | 0.00 | 0.00 | 87 | 1011.2 |
| 20260503224103 | 56 | 224 | 0.0 | 1.0 | 0.00 | 0.00 | 0.00 | 87 | 1011.3 |
| 20260503223903 | 56 | 224 | 0.0 | 1.0 | 0.00 | 0.00 | 0.00 | 87 | 1011.2 |
| 20260503223804 | 56 | 224 | 1.0 | 1.0 | 0.00 | 0.00 | 0.00 | 87 | 1011.2 |
| 20260503223602 | 56 | 224 | 1.0 | 2.0 | 0.00 | 0.00 | 0.00 | 88 | 1011.2 |
| 20260503223302 | 56 | 225 | 1.0 | 2.0 | 0.00 | 0.00 | 0.00 | 87 | 1011.3 |
| 20260503223215 | 57 | 224 | 1.0 | 2.0 | 0.00 | 0.00 | 0.00 | 83 | 11.0 |
| 20260503223209 | 56 | 224 | 1.0 | 2.0 | 0.00 | 0.00 | 0.00 | 87 | 1011.3 |
| 20260503223202 | 56 | 224 | 1.0 | 2.0 | 0.00 | 0.00 | 0.00 | 87 | 1011.3 |
| 20260503222802 | 56 | 224 | 0.0 | 1.0 | 0.00 | 0.00 | 0.00 | 87 | 1011.3 |
| 20260503222702 | 56 | 224 | 1.0 | 1.0 | 0.00 | 0.00 | 0.00 | 87 | 1011.3 |
| 20260503222602 | 57 | 224 | 0.0 | 2.0 | 0.00 | 0.00 | 0.00 | 87 | 1011.3 |
| 20260503222502 | 57 | 224 | 0.0 | 3.0 | 0.00 | 0.00 | 0.00 | 86 | 1011.3 |
| 20260503222215 | 57 | 224 | 0.0 | 3.0 | 0.00 | 0.00 | 0.00 | 83 | 11.1 |
| 20260503222213 | 57 | 225 | 1.0 | 3.0 | 0.00 | 0.00 | 0.00 | 86 | 1011.3 |
| 20260503222209 | 57 | 224 | 0.0 | 3.0 | 0.00 | 0.00 | 0.00 | 86 | 1011.3 |
| 20260503222004 | 57 | 224 | 1.0 | 3.0 | 0.00 | 0.00 | 0.00 | 86 | 1011.3 |
| 20260503221903 | 57 | 224 | 0.0 | 3.0 | 0.00 | 0.00 | 0.00 | 86 | 1011.3 |
| 20260503221803 | 58 | 224 | 1.0 | 3.0 | 0.00 | 0.00 | 0.00 | 86 | 1011.4 |
| 20260503221504 | 58 | 224 | 2.0 | 3.0 | 0.00 | 0.00 | 0.00 | 86 | 1011.3 |
| 20260503221403 | 58 | 224 | 2.0 | 3.0 | 0.00 | 0.00 | 0.00 | 85 | 1011.3 |
| 20260503221302 | 58 | 224 | 3.0 | 3.0 | 0.00 | 0.00 | 0.00 | 85 | 1011.3 |
| 20260503221215 | 58 | 224 | 3.0 | 3.0 | 0.00 | 0.00 | 0.00 | 83 | 11.1 |
| 20260503221210 | 58 | 224 | 3.0 | 3.0 | 0.00 | 0.00 | 0.00 | 85 | 1011.3 |
| 20260503221103 | 58 | 224 | 2.0 | 4.0 | 0.00 | 0.00 | 0.00 | 85 | 1011.3 |
| 20260503220802 | 58 | 225 | 3.0 | 4.0 | 0.00 | 0.00 | 0.00 | 86 | 1011.3 |
| 20260503220703 | 58 | 225 | 3.0 | 4.0 | 0.00 | 0.00 | 0.00 | 86 | 1011.4 |
| 20260503220602 | 58 | 231 | 3.0 | 4.0 | 0.00 | 0.00 | 0.00 | 87 | 1011.4 |
| 20260503220504 | 58 | 232 | 3.0 | 4.0 | 0.00 | 0.00 | 0.00 | 87 | 1011.4 |
| 20260503220305 | 58 | 220 | 2.0 | 3.0 | 0.00 | 0.00 | 0.00 | 87 | 1011.6 |
| 20260503220214 | 58 | 220 | 2.0 | 3.0 | 0.00 | 0.00 | 0.00 | 84 | 11.4 |
| 20260503220210 | 58 | 220 | 2.0 | 3.0 | 0.00 | 0.00 | 0.00 | 87 | 1011.5 |
| 20260503220103 | 58 | 220 | 2.0 | 3.0 | 0.00 | 0.00 | 0.00 | 87 | 1011.5 |
| 20260503215903 | 58 | 221 | 1.0 | 4.0 | 0.00 | 0.03 | 0.03 | 87 | 1011.5 |
| 20260503215703 | 58 | 286 | 1.0 | 3.0 | 0.00 | 0.03 | 0.03 | 87 | 1011.5 |
| 20260503215504 | 58 | 286 | 1.0 | 3.0 | 0.00 | 0.03 | 0.03 | 87 | 1011.6 |
| 20260503215304 | 58 | 286 | 0.0 | 2.0 | 0.00 | 0.03 | 0.03 | 87 | 1011.6 |
| 20260503215215 | 58 | 286 | 1.0 | 2.0 | 0.00 | 0.02 | 0.02 | 85 | 11.4 |
| 20260503215211 | 58 | 286 | 0.0 | 2.0 | 0.00 | 0.03 | 0.03 | 87 | 1011.6 |
| 20260503215209 | 58 | 286 | 1.0 | 2.0 | 0.00 | 0.03 | 0.03 | 87 | 1011.6 |
| 20260503215103 | 58 | 286 | 1.0 | 2.0 | 0.00 | 0.03 | 0.03 | 87 | 1011.5 |
| 20260503214902 | 58 | 286 | 0.0 | 2.0 | 0.00 | 0.03 | 0.03 | 87 | 1011.5 |
| 20260503214702 | 58 | 311 | 0.0 | 2.0 | 0.00 | 0.03 | 0.03 | 87 | 1011.4 |
| 20260503214504 | 58 | 311 | 2.0 | 2.0 | 0.00 | 0.03 | 0.03 | 87 | 1011.4 |
| 20260503214303 | 58 | 311 | 0.0 | 2.0 | 0.00 | 0.03 | 0.03 | 87 | 1011.5 |
| 20260503214215 | 58 | 311 | 2.0 | 3.0 | 0.00 | 0.02 | 0.02 | 84 | 11.2 |
| 20260503214210 | 58 | 311 | 2.0 | 2.0 | 0.00 | 0.03 | 0.03 | 87 | 1011.5 |
| 20260503214102 | 58 | 311 | 1.0 | 1.0 | 0.00 | 0.03 | 0.03 | 87 | 1011.4 |
| 20260503213903 | 58 | 311 | 0.0 | 2.0 | 0.00 | 0.03 | 0.03 | 87 | 1011.4 |
| 20260503213703 | 58 | 311 | 2.0 | 2.0 | 0.00 | 0.03 | 0.03 | 87 | 1011.4 |
| 20260503213503 | 58 | 311 | 1.0 | 2.0 | 0.00 | 0.03 | 0.03 | 88 | 1011.4 |
| 20260503213303 | 58 | 311 | 2.0 | 2.0 | 0.00 | 0.03 | 0.03 | 88 | 1011.3 |
| 20260503213214 | 58 | 311 | 1.0 | 2.0 | 0.00 | 0.02 | 0.02 | 84 | 11.2 |
| 20260503213210 | 58 | 311 | 0.0 | 2.0 | 0.00 | 0.03 | 0.03 | 88 | 1011.3 |
| 20260503213103 | 58 | 311 | 2.0 | 2.0 | 0.00 | 0.03 | 0.03 | 87 | 1011.4 |
| 20260503212903 | 58 | 311 | 0.0 | 2.0 | 0.00 | 0.03 | 0.03 | 87 | 1011.4 |
| 20260503212503 | 58 | 311 | 1.0 | 2.0 | 0.00 | 0.03 | 0.03 | 87 | 1011.4 |
| 20260503212304 | 58 | 311 | 1.0 | 2.0 | 0.00 | 0.03 | 0.03 | 87 | 1011.3 |
| 20260503212215 | 58 | 311 | 1.0 | 1.0 | 0.00 | 0.02 | 0.02 | 84 | 11.1 |
| 20260503212210 | 58 | 311 | 0.0 | 1.0 | 0.00 | 0.03 | 0.03 | 87 | 1011.3 |
| 20260503211603 | 58 | 311 | 0.0 | 1.0 | 0.00 | 0.03 | 0.03 | 87 | 1011.3 |
| 20260503211403 | 59 | 315 | 1.0 | 1.0 | 0.00 | 0.03 | 0.03 | 86 | 1011.3 |
| 20260503211214 | 59 | 311 | 1.0 | 2.0 | 0.00 | 0.02 | 0.02 | 83 | 11.1 |
| 20260503211211 | 59 | 311 | 0.0 | 1.0 | 0.00 | 0.03 | 0.03 | 86 | 1011.3 |
| 20260503211209 | 58 | 311 | 1.0 | 2.0 | 0.00 | 0.03 | 0.03 | 86 | 1011.3 |
| 20260503211004 | 59 | 311 | 0.0 | 0.0 | 0.00 | 0.03 | 0.03 | 86 | 1011.3 |
| 20260503210903 | 59 | 0 | 0.0 | 0.0 | 0.00 | 0.03 | 0.03 | 86 | 1011.3 |
| 20260503210403 | 59 | 311 | 0.0 | 0.0 | 0.00 | 0.03 | 0.03 | 86 | 1011.3 |
| 20260503210212 | 59 | 311 | 0.0 | 2.0 | 0.00 | 0.02 | 0.02 | 83 | 11.1 |
| 20260503210210 | 59 | 311 | 0.0 | 2.0 | 0.00 | 0.03 | 0.03 | 86 | 1011.3 |
| 20260503210202 | 59 | 311 | 0.0 | 1.0 | 0.00 | 0.03 | 0.03 | 86 | 1011.3 |
| 20260503205903 | 59 | 311 | 1.0 | 1.0 | 0.00 | 0.03 | 0.03 | 86 | 1011.3 |
| 20260503205703 | 59 | 311 | 0.0 | 1.0 | 0.00 | 0.03 | 0.03 | 85 | 1011.4 |
| 20260503205403 | 59 | 311 | 0.0 | 1.0 | 0.00 | 0.03 | 0.03 | 86 | 1011.3 |
| 20260503205213 | 59 | 311 | 1.0 | 1.0 | 0.00 | 0.03 | 0.03 | 85 | 1011.3 |
| 20260503205211 | 59 | 311 | 1.0 | 2.0 | 0.00 | 0.03 | 0.03 | 86 | 1011.3 |
| 20260503205103 | 59 | 311 | 0.0 | 1.0 | 0.00 | 0.03 | 0.03 | 85 | 1011.3 |
| 20260503204704 | 59 | 311 | 1.0 | 2.0 | 0.00 | 0.03 | 0.03 | 85 | 1011.3 |
| 20260503204602 | 59 | 311 | 1.0 | 2.0 | 0.00 | 0.03 | 0.03 | 85 | 1011.2 |
| 20260503204505 | 59 | 311 | 1.0 | 1.0 | 0.00 | 0.03 | 0.03 | 85 | 1011.3 |
| 20260503204303 | 59 | 311 | 0.0 | 2.0 | 0.00 | 0.03 | 0.03 | 85 | 1011.3 |
| 20260503204212 | 59 | 311 | 1.0 | 2.0 | 0.00 | 0.02 | 0.02 | 82 | 11.1 |
| 20260503204102 | 59 | 315 | 2.0 | 3.0 | 0.00 | 0.03 | 0.03 | 85 | 1011.3 |
| 20260503203703 | 59 | 311 | 1.0 | 3.0 | 0.00 | 0.03 | 0.03 | 85 | 1011.3 |
| 20260503203402 | 59 | 311 | 2.0 | 3.0 | 0.00 | 0.03 | 0.03 | 85 | 1011.3 |
| 20260503203212 | 59 | 311 | 1.0 | 2.0 | 0.00 | 0.02 | 0.02 | 81 | 11.1 |
| 20260503203210 | 59 | 311 | 1.0 | 2.0 | 0.00 | 0.03 | 0.03 | 84 | 1011.3 |
| 20260503203203 | 59 | 311 | 0.0 | 2.0 | 0.00 | 0.03 | 0.03 | 85 | 1011.3 |
| 20260503203103 | 59 | 311 | 0.0 | 2.0 | 0.00 | 0.03 | 0.03 | 85 | 1011.4 |
| 20260503203005 | 59 | 311 | 1.0 | 2.0 | 0.00 | 0.03 | 0.03 | 85 | 1011.4 |
| 20260503202802 | 59 | 311 | 1.0 | 2.0 | 0.00 | 0.03 | 0.03 | 85 | 1011.3 |
| 20260503202703 | 59 | 311 | 0.0 | 3.0 | 0.00 | 0.03 | 0.03 | 84 | 1011.4 |
| 20260503202212 | 60 | 301 | 2.0 | 4.0 | 0.00 | 0.02 | 0.02 | 82 | 11.2 |
| 20260503202210 | 60 | 301 | 2.0 | 4.0 | 0.00 | 0.03 | 0.03 | 85 | 1011.4 |
| 20260503202203 | 60 | 301 | 3.0 | 4.0 | 0.00 | 0.03 | 0.03 | 85 | 1011.4 |
| 20260503202005 | 60 | 301 | 4.0 | 4.0 | 0.00 | 0.03 | 0.03 | 85 | 1011.4 |
| 20260503201803 | 60 | 301 | 3.0 | 4.0 | 0.00 | 0.03 | 0.03 | 85 | 1011.4 |
| 20260503201505 | 60 | 301 | 2.0 | 3.0 | 0.00 | 0.03 | 0.03 | 84 | 1011.3 |
| 20260503201403 | 60 | 280 | 1.0 | 2.0 | 0.00 | 0.03 | 0.03 | 84 | 1011.4 |
| 20260503201203 | 59 | 280 | 0.0 | 2.0 | 0.00 | 0.03 | 0.03 | 85 | 1011.4 |
| 20260503200904 | 60 | 216 | 1.0 | 2.0 | 0.00 | 0.03 | 0.03 | 84 | 1011.4 |
| 20260503200803 | 60 | 216 | 1.0 | 3.0 | 0.00 | 0.03 | 0.03 | 84 | 1011.4 |
| 20260503200703 | 60 | 216 | 0.0 | 3.0 | 0.00 | 0.03 | 0.03 | 84 | 1011.4 |
| 20260503200503 | 60 | 216 | 2.0 | 3.0 | 0.00 | 0.03 | 0.03 | 84 | 1011.4 |
| 20260503200202 | 60 | 216 | 1.0 | 2.0 | 0.00 | 0.03 | 0.03 | 84 | 1011.3 |
| 20260503195902 | 60 | 216 | 0.0 | 3.0 | 0.00 | 0.03 | 0.03 | 84 | 1011.3 |
| 20260503195703 | 60 | 216 | 3.0 | 5.0 | 0.00 | 0.03 | 0.03 | 83 | 1011.3 |
| 20260503195304 | 60 | 216 | 0.0 | 5.0 | 0.00 | 0.03 | 0.03 | 83 | 1011.3 |
| 20260503195213 | 60 | 216 | 4.0 | 5.0 | 0.00 | 0.03 | 0.03 | 83 | 1011.3 |
| 20260503195210 | 60 | 216 | 4.0 | 5.0 | 0.00 | 0.02 | 0.02 | 80 | 11.0 |
| 20260503195103 | 60 | 225 | 3.0 | 4.0 | 0.00 | 0.03 | 0.03 | 83 | 1011.2 |
| 20260503194802 | 60 | 216 | 2.0 | 4.0 | 0.00 | 0.03 | 0.03 | 83 | 1011.1 |
| 20260503194505 | 60 | 216 | 0.0 | 4.0 | 0.00 | 0.03 | 0.03 | 84 | 1011.1 |
| 20260503194211 | 60 | 216 | 2.0 | 3.0 | 0.00 | 0.03 | 0.03 | 84 | 1011.1 |
| 20260503194103 | 60 | 216 | 3.0 | 4.0 | 0.00 | 0.03 | 0.03 | 84 | 1011.1 |
| 20260503193902 | 60 | 216 | 3.0 | 3.0 | 0.00 | 0.03 | 0.03 | 84 | 1011.1 |
| 20260503193802 | 60 | 216 | 2.0 | 3.0 | 0.00 | 0.03 | 0.03 | 84 | 1011.1 |
| 20260503193503 | 60 | 216 | 4.0 | 4.0 | 0.00 | 0.03 | 0.03 | 85 | 1011.1 |
| 20260503193211 | 60 | 216 | 2.0 | 4.0 | 0.00 | 0.03 | 0.03 | 85 | 1011.0 |
| 20260503193103 | 60 | 225 | 2.0 | 3.0 | 0.00 | 0.03 | 0.03 | 84 | 1011.0 |
| 20260503192802 | 60 | 216 | 2.0 | 3.0 | 0.00 | 0.03 | 0.03 | 84 | 1011.0 |
| 20260503192603 | 60 | 216 | 2.0 | 4.0 | 0.00 | 0.03 | 0.03 | 83 | 1011.0 |
| 20260503192403 | 60 | 216 | 3.0 | 4.0 | 0.00 | 0.03 | 0.03 | 84 | 1011.0 |
| 20260503192305 | 60 | 216 | 3.0 | 4.0 | 0.00 | 0.03 | 0.03 | 84 | 1011.1 |
| 20260503192210 | 60 | 216 | 4.0 | 5.0 | 0.00 | 0.03 | 0.03 | 83 | 1011.0 |
| 20260503192202 | 60 | 216 | 3.0 | 5.0 | 0.00 | 0.03 | 0.03 | 83 | 1011.0 |
| 20260503192003 | 61 | 217 | 4.0 | 5.0 | 0.00 | 0.03 | 0.03 | 83 | 1011.0 |
| 20260503191903 | 61 | 216 | 4.0 | 5.0 | 0.00 | 0.03 | 0.03 | 83 | 1011.0 |
| 20260503191804 | 61 | 216 | 4.0 | 5.0 | 0.00 | 0.03 | 0.03 | 83 | 1011.1 |
| 20260503191602 | 61 | 216 | 2.0 | 5.0 | 0.00 | 0.03 | 0.03 | 83 | 1011.0 |
| 20260503191504 | 61 | 217 | 2.0 | 5.0 | 0.00 | 0.03 | 0.03 | 83 | 1011.0 |
| 20260503191211 | 61 | 213 | 3.0 | 5.0 | 0.00 | 0.03 | 0.03 | 83 | 1011.0 |
| 20260503191103 | 61 | 216 | 3.0 | 5.0 | 0.00 | 0.03 | 0.03 | 83 | 1011.0 |
| 20260503191004 | 61 | 214 | 3.0 | 5.0 | 0.00 | 0.03 | 0.03 | 84 | 1011.0 |
| 20260503190702 | 60 | 223 | 3.0 | 5.0 | 0.00 | 0.03 | 0.03 | 84 | 1011.0 |
| 20260503190504 | 60 | 225 | 2.0 | 4.0 | 0.00 | 0.03 | 0.03 | 84 | 1011.0 |
| 20260503190403 | 61 | 225 | 0.0 | 3.0 | 0.00 | 0.03 | 0.03 | 84 | 1011.0 |
| 20260503185902 | 61 | 225 | 0.0 | 3.0 | 0.00 | 0.03 | 0.03 | 84 | 1010.9 |
| 20260503185803 | 61 | 225 | 0.0 | 3.0 | 0.00 | 0.03 | 0.03 | 85 | 1010.9 |
| 20260503185702 | 61 | 225 | 1.0 | 3.0 | 0.00 | 0.03 | 0.03 | 85 | 1010.9 |
| 20260503185402 | 61 | 225 | 1.0 | 3.0 | 0.00 | 0.03 | 0.03 | 84 | 1010.9 |
| 20260503185210 | 61 | 225 | 1.0 | 2.0 | 0.00 | 0.03 | 0.03 | 84 | 1010.9 |
| 20260503185104 | 61 | 225 | 0.0 | 3.0 | 0.00 | 0.03 | 0.03 | 84 | 1010.9 |
| 20260503184604 | 61 | 225 | 2.0 | 4.0 | 0.00 | 0.03 | 0.03 | 84 | 1010.9 |
| 20260503184403 | 61 | 225 | 2.0 | 4.0 | 0.00 | 0.03 | 0.03 | 84 | 1010.8 |
| 20260503184210 | 61 | 225 | 2.0 | 4.0 | 0.00 | 0.03 | 0.03 | 84 | 1010.8 |
| 20260503184102 | 61 | 225 | 3.0 | 4.0 | 0.00 | 0.03 | 0.03 | 84 | 1010.8 |
| 20260503183903 | 61 | 236 | 2.0 | 4.0 | 0.00 | 0.03 | 0.03 | 84 | 1010.8 |
| 20260503183802 | 61 | 236 | 2.0 | 4.0 | 0.00 | 0.03 | 0.03 | 84 | 1010.8 |
| 20260503183503 | 61 | 247 | 0.0 | 3.0 | 0.00 | 0.03 | 0.03 | 83 | 1010.8 |
| 20260503183210 | 61 | 256 | 2.0 | 4.0 | 0.00 | 0.03 | 0.03 | 83 | 1010.8 |
| 20260503183202 | 61 | 257 | 2.0 | 4.0 | 0.00 | 0.03 | 0.03 | 84 | 1010.8 |
| 20260503182803 | 61 | 271 | 2.0 | 4.0 | 0.00 | 0.03 | 0.03 | 84 | 1010.7 |
| 20260503182602 | 61 | 277 | 1.0 | 3.0 | 0.00 | 0.03 | 0.03 | 84 | 1010.7 |
| 20260503182504 | 61 | 275 | 1.0 | 3.0 | 0.00 | 0.03 | 0.03 | 84 | 1010.7 |
| 20260503182304 | 61 | 270 | 2.0 | 3.0 | 0.00 | 0.03 | 0.03 | 84 | 1010.7 |
| 20260503182210 | 61 | 275 | 1.0 | 3.0 | 0.00 | 0.02 | 0.02 | 81 | 10.5 |
| 20260503182103 | 61 | 275 | 1.0 | 3.0 | 0.00 | 0.03 | 0.03 | 84 | 1010.7 |
| 20260503181903 | 61 | 275 | 2.0 | 3.0 | 0.00 | 0.03 | 0.03 | 83 | 1010.7 |
| 20260503181803 | 61 | 275 | 2.0 | 4.0 | 0.00 | 0.03 | 0.03 | 82 | 1010.7 |
| 20260503181603 | 61 | 279 | 1.0 | 4.0 | 0.00 | 0.03 | 0.03 | 83 | 1010.7 |
| 20260503181403 | 61 | 279 | 1.0 | 4.0 | 0.00 | 0.03 | 0.03 | 82 | 1010.6 |
| 20260503181211 | 61 | 279 | 1.0 | 4.0 | 0.00 | 0.02 | 0.02 | 80 | 10.4 |
| 20260503181202 | 61 | 279 | 2.0 | 4.0 | 0.00 | 0.03 | 0.03 | 82 | 1010.6 |
| 20260503181004 | 61 | 257 | 1.0 | 4.0 | 0.00 | 0.03 | 0.03 | 83 | 1010.6 |
| 20260503180803 | 61 | 256 | 2.0 | 4.0 | 0.00 | 0.03 | 0.03 | 83 | 1010.6 |
| 20260503180703 | 61 | 241 | 2.0 | 4.0 | 0.00 | 0.03 | 0.03 | 83 | 1010.6 |
| 20260503180603 | 61 | 275 | 2.0 | 3.0 | 0.00 | 0.03 | 0.03 | 83 | 1010.6 |
| 20260503180402 | 61 | 270 | 2.0 | 3.0 | 0.00 | 0.03 | 0.03 | 83 | 1010.6 |
| 20260503180210 | 61 | 275 | 2.0 | 3.0 | 0.00 | 0.03 | 0.03 | 83 | 1010.6 |
| 20260503180203 | 61 | 275 | 1.0 | 2.0 | 0.00 | 0.03 | 0.03 | 83 | 1010.6 |
| 20260503180005 | 61 | 275 | 0.0 | 3.0 | 0.00 | 0.03 | 0.03 | 82 | 1010.5 |
| 20260503175703 | 61 | 284 | 1.0 | 3.0 | 0.00 | 0.03 | 0.03 | 82 | 1010.5 |
| 20260503175602 | 61 | 284 | 1.0 | 3.0 | 0.00 | 0.03 | 0.03 | 82 | 1010.5 |
| 20260503175504 | 61 | 284 | 0.0 | 2.0 | 0.00 | 0.03 | 0.03 | 82 | 1010.5 |
| 20260503175304 | 62 | 284 | 1.0 | 2.0 | 0.00 | 0.03 | 0.03 | 83 | 1010.5 |
| 20260503175213 | 61 | 284 | 1.0 | 3.0 | 0.00 | 0.03 | 0.03 | 83 | 1010.5 |
| 20260503175210 | 62 | 284 | 1.0 | 2.0 | 0.00 | 0.02 | 0.02 | 80 | 10.3 |
| 20260503175103 | 61 | 284 | 1.0 | 3.0 | 0.00 | 0.03 | 0.03 | 83 | 1010.5 |
| 20260503175004 | 62 | 284 | 2.0 | 3.0 | 0.00 | 0.03 | 0.03 | 82 | 1010.5 |
| 20260503174803 | 62 | 284 | 2.0 | 3.0 | 0.00 | 0.03 | 0.03 | 82 | 1010.5 |
| 20260503174503 | 62 | 284 | 3.0 | 3.0 | 0.00 | 0.03 | 0.03 | 82 | 1010.5 |
| 20260503174403 | 62 | 295 | 2.0 | 5.0 | 0.00 | 0.03 | 0.03 | 82 | 1010.5 |
| 20260503174211 | 62 | 295 | 3.0 | 5.0 | 0.00 | 0.03 | 0.03 | 82 | 1010.5 |
| 20260503174103 | 62 | 250 | 2.0 | 5.0 | 0.00 | 0.03 | 0.03 | 82 | 1010.5 |
| 20260503173903 | 62 | 239 | 2.0 | 5.0 | 0.00 | 0.03 | 0.03 | 81 | 1010.5 |
| 20260503173704 | 62 | 250 | 1.0 | 4.0 | 0.00 | 0.03 | 0.03 | 82 | 1010.5 |
| 20260503173506 | 62 | 253 | 2.0 | 3.0 | 0.00 | 0.03 | 0.03 | 82 | 1010.5 |
| 20260503173303 | 62 | 279 | 0.0 | 3.0 | 0.00 | 0.03 | 0.03 | 82 | 1010.5 |
| 20260503173103 | 62 | 269 | 2.0 | 3.0 | 0.00 | 0.03 | 0.03 | 82 | 1010.5 |
| 20260503172703 | 62 | 269 | 3.0 | 4.0 | 0.00 | 0.03 | 0.03 | 81 | 1010.5 |
| 20260503172504 | 62 | 254 | 3.0 | 6.0 | 0.00 | 0.03 | 0.03 | 81 | 1010.5 |
| 20260503172305 | 62 | 257 | 4.0 | 6.0 | 0.00 | 0.03 | 0.03 | 81 | 1010.4 |
| 20260503172211 | 62 | 257 | 3.0 | 6.0 | 0.00 | 0.03 | 0.03 | 81 | 1010.5 |